Simultaneous Nadir Overpasses (SNOs) Predictions

Prediction of SNOs between NOAA-20 and NOAA-19 Satellite Orbit:

Table of predicted SNOs for the next 14.0 days since TLE Epoch: 5/1/2020
Index Date (NOAA-20) Time (NOAA-20) Lat,Lon (NOAA-20) SZA (NOAA-20 ) Date (NOAA-19) Time (NOAA-19) Lat,Lon (NOAA-19) SZA (NOAA-19 ) Distance(km) Time Diff (sec)
1 05/14/2020 22:15:02 -79.39, -6.97 117.81 05/14/2020 22:13:48 -79.38, -6.99 117.79 1.51 74
2 05/14/2020 23:05:47 79.39, 160.37 62.18 05/14/2020 23:04:52 79.41, 160.50 62.20 3.29 55
3 05/14/2020 23:56:32 -79.39, -32.38 117.82 05/14/2020 23:55:48 -79.40, -32.32 117.81 1.18 44
4 05/15/2020 00:47:17 79.39, 134.96 62.17 05/15/2020 00:46:53 79.39, 134.89 62.19 1.51 24
5 05/15/2020 01:38:02 -79.40, -57.78 117.83 05/15/2020 01:37:49 -79.38, -57.92 117.82 3.26 13
6 05/15/2020 02:28:47 79.40, 109.56 62.16 05/15/2020 02:28:53 79.41, 109.56 62.17 1.87 6
7 05/15/2020 03:19:32 -79.40, -83.19 117.84 05/15/2020 03:19:49 -79.40, -83.25 117.84 1.27 17
8 05/15/2020 04:10:17 79.40, 84.15 62.15 05/15/2020 04:10:53 79.43, 84.24 62.15 3.87 36
9 05/15/2020 05:01:02 -79.41,-108.59 117.85 05/15/2020 05:01:49 -79.42,-108.58 117.86 1.72 47
10 05/15/2020 05:51:47 79.40, 58.74 62.14 05/15/2020 05:52:54 79.42, 58.63 62.14 2.91 67




NCC Satellite Simultaneous Nadir Overpasses (SNOs) Prediction Service
